FW5447 Weather Reports


time (UTC)temp
C
wind
direction
speed
KPH
gust
KPH
rain 1hr
cm
rain 24hr
cm
rain mn
cm
humidity
%
barometer
mb
20260508135516 13 41 8.0 14.5 0.00 0.00 0.00 30 1024.4
20260508134516 13 47 8.0 14.5 0.00 0.00 0.00 28 1024.5
20260508133515 13 57 6.4 14.5 0.00 0.00 0.00 30 1024.3
20260508132516 14 50 8.0 19.3 0.00 0.00 0.00 31 1024.0
20260508131516 13 40 6.4 12.9 0.00 0.00 0.00 32 1024.1
20260508130556 13 35 8.0 16.1 0.00 0.00 0.00 31 1024.3
20260508125516 13 37 9.7 17.7 0.00 0.00 0.00 31 1024.1
20260508124517 13 30 9.7 17.7 0.00 0.00 0.00 31 1024.2
20260508123517 13 28 9.7 17.7 0.00 0.00 0.00 32 1024.1
20260508122517 13 26 6.4 16.1 0.00 0.00 0.00 33 1024.1
20260508121537 13 35 8.0 19.3 0.00 0.00 0.00 32 1024.2
20260508120517 13 35 9.7 19.3 0.00 0.00 0.00 32 1024.2
20260508115518 13 37 9.7 20.9 0.00 0.00 0.00 30 1024.2
20260508114518 13 36 9.7 16.1 0.00 0.00 0.00 31 1024.2
20260508113518 13 60 8.0 22.5 0.00 0.00 0.00 30 1024.2
20260508112518 13 46 9.7 17.7 0.00 0.00 0.00 30 1024.2
20260508111518 13 20 9.7 17.7 0.00 0.00 0.00 31 1024.1
20260508110518 13 47 9.7 16.1 0.00 0.00 0.00 30 1024.2
20260508105518 12 47 8.0 16.1 0.00 0.00 0.00 29 1024.1
20260508104516 12 59 8.0 17.7 0.00 0.00 0.00 29 1024.1
20260508103515 12 47 8.0 14.5 0.00 0.00 0.00 29 1024.2
20260508102516 13 34 8.0 14.5 0.00 0.00 0.00 32 1024.0
20260508101516 12 40 6.4 14.5 0.00 0.00 0.00 32 1023.9
20260508100536 12 40 6.4 14.5 0.00 0.00 0.00 34 1024.0
20260508095516 12 36 8.0 14.5 0.00 0.00 0.00 33 1023.9
20260508094516 12 36 8.0 19.3 0.00 0.00 0.00 33 1024.0
20260508093516 12 47 8.0 14.5 0.00 0.00 0.00 33 1024.0
20260508092537 12 15 6.4 11.3 0.00 0.00 0.00 34 1023.7
20260508091517 12 25 8.0 16.1 0.00 0.00 0.00 35 1023.9
20260508090517 12 29 8.0 14.5 0.00 0.00 0.00 34 1023.7
20260508085537 11 36 9.7 16.1 0.00 0.00 0.00 34 1023.9
20260508084517 12 38 9.7 19.3 0.00 0.00 0.00 35 1023.8
20260508083517 11 43 8.0 16.1 0.00 0.00 0.00 36 1023.8
20260508082538 11 50 8.0 17.7 0.00 0.00 0.00 36 1023.8
20260508081518 11 29 9.7 20.9 0.00 0.00 0.00 35 1023.9
20260508080518 11 44 8.0 16.1 0.00 0.00 0.00 36 1023.8
20260508075538 11 46 9.7 17.7 0.00 0.00 0.00 35 1023.7
20260508074518 11 20 8.0 14.5 0.00 0.00 0.00 37 1023.6
20260508073516 11 42 9.7 17.7 0.00 0.00 0.00 37 1023.5
20260508072515 11 32 8.0 17.7 0.00 0.00 0.00 38 1023.3
20260508071536 10 38 9.7 17.7 0.00 0.00 0.00 38 1023.2
20260508070516 10 37 11.3 19.3 0.00 0.00 0.00 38 1023.1
20260508065536 10 49 6.4 14.5 0.00 0.00 0.00 38 1022.9
20260508064516 10 48 8.0 14.5 0.00 0.00 0.00 37 1022.8
20260508063537 10 24 9.7 19.3 0.00 0.00 0.00 37 1023.2
20260508062517 10 35 8.0 14.5 0.00 0.00 0.00 39 1023.4
20260508061517 9 34 8.0 16.1 0.00 0.00 0.00 43 1023.2
20260508060517 9 41 9.7 19.3 0.00 0.00 0.00 45 1022.9
20260508055517 9 30 6.4 14.5 0.00 0.00 0.00 48 1022.5
20260508054517 8 26 6.4 12.9 0.00 0.00 0.00 49 1022.2
20260508053517 8 41 6.4 11.3 0.00 0.00 0.00 53 1022.3
20260508052517 8 32 8.0 12.9 0.00 0.00 0.00 55 1022.5
20260508051518 7 28 6.4 12.9 0.00 0.00 0.00 57 1022.4
20260508050518 7 43 4.8 11.3 0.00 0.00 0.00 60 1022.3
20260508045518 6 42 6.4 12.9 0.00 0.00 0.00 62 1022.3
20260508044518 6 22 6.4 14.5 0.00 0.00 0.00 63 1022.4
20260508043518 6 40 8.0 17.7 0.00 0.00 0.00 64 1022.3
20260508042515 5 41 6.4 11.3 0.00 0.00 0.00 67 1022.1
20260508041516 4 353 3.2 6.4 0.00 0.00 0.00 70 1022.2
20260508040516 3 338 1.6 6.4 0.00 0.00 0.00 73 1022.1
20260508035516 2 340 1.6 6.4 0.00 0.00 0.00 76 1022.1
20260508034515 2 353 1.6 4.8 0.00 0.00 0.00 79 1022.0
20260508033536 1 309 1.6 6.4 0.00 0.00 0.00 82 1022.0
20260508032516 0 311 0.0 4.8 0.00 0.00 0.00 85 1021.9
20260508031517 -1 316 0.0 1.6 0.00 0.00 0.00 89 1022.0
20260508030536 -1 272 0.0 4.8 0.00 0.00 0.00 89 1022.2
20260508025516 -1 300 1.6 4.8 0.00 0.00 0.00 89 1022.1
20260508024517 -1 288 0.0 4.8 0.00 0.00 0.00 89 1022.0
20260508023517 -1 281 1.6 6.4 0.00 0.00 0.00 89 1021.8
20260508022518 -1 227 0.0 4.8 0.00 0.00 0.00 89 1022.0
20260508021517 -1 287 0.0 4.8 0.00 0.00 0.00 89 1021.7
20260508020517 -1 258 0.0 4.8 0.00 0.00 0.00 88 1021.6
20260508015517 -1 301 0.0 1.6 0.00 0.00 0.00 88 1021.4
20260508014517 -1 248 0.0 4.8 0.00 0.00 0.00 88 1021.3
20260508013518 -1 299 1.6 4.8 0.00 0.00 0.00 88 1021.2
20260508012517 -1 284 0.0 4.8 0.00 0.00 0.00 88 1021.2
20260508011536 -1 224 0.0 1.6 0.00 0.00 0.00 88 1021.2
20260508010518 -1 214 0.0 1.6 0.00 0.00 0.00 88 1021.1
20260508005516 -1 261 0.0 3.2 0.00 0.00 0.00 87 1020.9
20260508004518 -1 239 0.0 3.2 0.00 0.00 0.00 87 1020.9
20260508003516 -1 191 0.0 1.6 0.00 0.00 0.00 87 1020.8
20260508002535 -1 169 1.6 6.4 0.00 0.00 0.00 86 1020.7
20260508001536 -1 286 0.0 1.6 0.00 0.00 0.00 86 1020.4
20260508000536 -1 249 1.6 3.2 0.00 0.00 0.00 86 1020.5
20260507235536 -1 247 0.0 3.2 0.00 0.00 0.00 86 1020.4
20260507234536 0 254 0.0 1.6 0.00 0.00 0.00 85 1020.3
20260507233537 0 250 0.0 1.6 0.00 0.00 0.00 84 1020.1
20260507232516 0 266 0.0 1.6 0.00 0.00 0.00 83 1020.1
20260507231517 -1 213 0.0 1.6 0.00 0.00 0.00 84 1020.0
20260507230517 -1 195 0.0 1.6 0.00 0.00 0.00 84 1019.9
20260507225517 0 152 0.0 1.6 0.00 0.00 0.00 83 1019.8
20260507224538 0 274 0.0 1.6 0.00 0.00 0.00 82 1019.6
20260507223517 0 259 0.0 1.6 0.00 0.00 0.00 83 1019.4
20260507222518 0 238 0.0 1.6 0.00 0.00 0.00 82 1019.4
20260507221518 0 244 0.0 1.6 0.00 0.00 0.00 82 1019.2
20260507220518 0 245 0.0 1.6 0.00 0.00 0.00 81 1019.2
20260507215518 0 239 0.0 1.6 0.00 0.00 0.00 80 1019.2
20260507214535 0 253 0.0 1.6 0.00 0.00 0.00 78 1019.0
20260507213515 0 253 0.0 1.6 0.00 0.00 0.00 76 1018.8
20260507212519 0 251 0.0 1.6 0.00 0.00 0.00 77 1018.8
20260507211555 0 249 0.0 1.6 0.00 0.00 0.00 76 1018.7
20260507210519 0 265 0.0 1.6 0.00 0.00 0.00 73 1018.7
20260507205516 0 211 0.0 1.6 0.00 0.00 0.00 72 1018.7
20260507204536 1 213 0.0 3.2 0.00 0.00 0.00 69 1018.6
20260507203516 1 169 0.0 3.2 0.00 0.00 0.00 70 1018.5
20260507202516 1 202 0.0 3.2 0.00 0.00 0.00 66 1018.4
20260507201517 2 242 1.6 4.8 0.00 0.00 0.00 63 1018.2
20260507200517 2 228 0.0 3.2 0.00 0.00 0.00 63 1018.1
20260507195517 2 224 0.0 1.6 0.00 0.00 0.00 62 1018.1
20260507194517 3 225 0.0 1.6 0.00 0.00 0.00 59 1018.0
20260507193517 3 225 0.0 4.8 0.00 0.00 0.00 58 1017.9
20260507192517 4 233 1.6 3.2 0.00 0.00 0.00 55 1017.7
20260507191517 5 239 0.0 1.6 0.00 0.00 0.00 52 1017.6
20260507190517 6 253 0.0 3.2 0.00 0.00 0.00 54 1017.5
20260507185518 6 268 0.0 1.6 0.00 0.00 0.00 47 1017.2
20260507184518 7 353 1.6 6.4 0.00 0.00 0.00 43 1017.0
20260507183518 7 334 1.6 3.2 0.00 0.00 0.00 42 1016.8
20260507182515 8 306 1.6 4.8 0.00 0.00 0.00 42 1016.7
20260507181516 8 316 1.6 4.8 0.00 0.00 0.00 37 1016.4
20260507180536 9 340 1.6 6.4 0.00 0.00 0.00 34 1016.1
20260507175536 10 345 3.2 6.4 0.00 0.00 0.00 34 1015.9
20260507174516 10 3 1.6 4.8 0.00 0.00 0.00 32 1015.8
20260507173516 10 8 3.2 6.4 0.00 0.00 0.00 29 1015.6
20260507172536 11 5 1.6 4.8 0.00 0.00 0.00 26 1015.4
20260507171516 11 19 1.6 8.0 0.00 0.00 0.00 25 1015.3
20260507170517 11 338 3.2 9.7 0.00 0.00 0.00 26 1015.2
20260507165518 11 29 3.2 8.0 0.00 0.00 0.00 28 1015.1
20260507164517 11 19 4.8 11.3 0.00 0.00 0.00 28 1014.9
20260507163537 11 39 4.8 11.3 0.00 0.00 0.00 29 1014.9
20260507162518 11 351 3.2 6.4 0.00 0.00 0.00 29 1015.0
20260507161517 12 32 3.2 8.0 0.00 0.00 0.00 31 1014.8
20260507160518 12 50 4.8 8.0 0.00 0.00 0.00 31 1014.6
20260507155518 12 22 4.8 11.3 0.00 0.00 0.00 31 1014.7
20260507154518 12 2 4.8 9.7 0.00 0.00 0.00 31 1014.6
20260507153518 12 45 6.4 11.3 0.00 0.00 0.00 31 1014.5
20260507152518 12 25 6.4 14.5 0.00 0.00 0.00 31 1014.6
20260507151516 12 47 4.8 9.7 0.00 0.00 0.00 33 1014.5
20260507150535 12 34 4.8 12.9 0.00 0.00 0.00 33 1014.6
20260507145518 12 28 6.4 12.9 0.00 0.00 0.00 32 1014.3
20260507144536 13 36 6.4 14.5 0.00 0.00 0.00 32 1013.8
20260507143516 12 14 4.8 16.1 0.00 0.00 0.00 33 1013.6
20260507142516 13 36 8.0 16.1 0.00 0.00 0.00 32 1013.6
20260507141516 12 45 8.0 16.1 0.00 0.00 0.00 32 1013.7
20260507140536 13 15 8.0 14.5 0.00 0.00 0.00 32 1013.8